THORAD AGENA D DEB, 4607

Orbit data source: Space-Track

THORAD AGENA D DEB, 4607 is space debris in SSO originally from a launch on Wed, 08 Apr 1970 UTC launched from the Air Force Western Test Range (AFWTR). Debris objects in space refer to the collection of defunct objects orbiting the Earth. Examples of debris include non-operational satellites, rocket bodies, and fragments generated from explosions, collisions, or faulty payload assembly.

Loading next visibility...
Identifier
4607, 1970-025K
Orbit
SSO
Country
Flag of USUS
Related business
Manufacturer
Unknown
Mission
Spacecraft
Bus & Motor
Unknown
Mass
Unknown
Launch date (UTC)
1970-04-08 (56 years ago)
Launch vehicle
Unknown
Launch site
Air Force Western Test Range (AFWTR)
Object type
Payload
Rocket body
Debris
Shape & HBR
Unknown shape, 0.3 m
Radar Cross Section
Medium (>0.1 m² and <1 m²)

Expand to show TLE details & history
Last TLE update: 20 hours ago

TLE from 20 hours ago
0 THORAD AGENA D DEB
1 04607U 70025K   26207.61729513  .00000348  00000-0  16867-2 0  9997
2 04607 100.2065 110.9544 0614140  90.6868 342.3276 12.31236285526148
Epoch: 2026-07-26T14:48Z
TLE epoch observation values (Epoch: 2026-07-26T14:48:54.299Z)
Latitude
68.34909°
Longitude
-82.40598°
Altitude
1,095.041 km
Speed
7.521 km/s
True Right ascension
05h 36m 31s
True Declination
68° 14' 10"
Sunlit
Object was in daylight at epoch
Visualization orbit readout
Latitude
Unknown
Longitude
Unknown
Altitude
Unknown
Speed
Unknown
Apparent Right ascension
Unknown
Apparent Declination
Unknown
Sunlit
N/A
Visualization observer readout
Local Sidereal Time
00:01:16
Azimuth
Unknown
Elevation
Unknown
Doppler factor
Unknown
Orbital elements
Apogee altitude
2,027.82 km
Perigee altitude
1,055.074 km
Semi-major axis
7,919.584 km
Eccentricity
0.06141
Inclination
100.2065°
RAAN
110.9544°
Arg. of periapsis
90.6868°
True anomaly
340.0238°
Mean anomaly
342.3276°
Eccentric anomaly
341.19323°
Mean motion
3.07957 °/min
Orbital period
116.9 mins
BSTAR
0.0016867
Loading maneuver chart data...
Computing Atmospheric mass density...
Loading historical data...
Loading historical data...
Loading historical data...
Loading historical data...
Loading historical data...
Loading historical data...
Loading historical data...

Documentation

Showing up to 5 results
|